Crescent City, CA

7:23 AM PDT on April 23, 2017 (GMT -0700)
McNamara

Weather History for KCEC - October, 2012

Change the Weather History Date:

Friday, October 19, 2012

  Actual Average Record
Temperature  
Mean Temperature 53 °F 53 °F  
Max Temperature 57 °F 60 °F 80 °F (1964)
Min Temperature 48 °F 46 °F 34 °F (1966)
Degree Days  
Heating Degree Days 12 12  
Month to date heating degree days 213  
Since 1 July heating degree days 1017  
Cooling Degree Days 0 0  
Month to date cooling degree days 0  
Year to date cooling degree days 0  
Growing Degree Days 2 (Base 50)    
Moisture  
Dew Point 51 °F    
Average Humidity 93    
Maximum Humidity 100    
Minimum Humidity 86    
Precipitation  
Precipitation T in 0.15 in 1.26 in (2007)
Month to date precipitation 2.57 1.85  
Year to date precipitation 46.72 40.64  
Since 1 July precipitation 3.34  
Snow  
Snow 0.00 in - - ()
Month to date snowfall 0.0  
Since 1 July snowfall 0.0  
Since 1 September snowfall 0.0  
Snow Depth -    
Sea Level Pressure  
Sea Level Pressure 30.03 in    
Wind  
Wind Speed 6 mph (SSE)    
Max Wind Speed 15 mph    
Max Gust Speed 21 mph    
Visibility 4 miles    
Events Fog , Rain    
T = Trace of Precipitation, MM = Missing Value Source: NWS Daily Summary

Daily Weather History Graph

Daily Weather History Graph

Search for Another Location

Airport or City:

Trip Planner

Search our weather history database for the weather conditions in past years. The results will help you decide how hot, cold, wet, or windy it might be!

Date:

Astronomy

Oct. 19, 2012 Rise Set
Actual Time 7:34 AM PDT 6:28 PM PDT
Civil Twilight 7:06 AM PDT 6:56 PM PDT
Nautical Twilight 6:33 AM PDT 7:29 PM PDT
Astronomical Twilight 6:01 AM PDT 8:01 PM PDT
Moon 12:25 PM PDT (10/19) 10:10 PM PDT (10/19)
Length of Visible Light 11h 50m
Length of Day
10h 54m
Waxing Crescent, 24% of the Moon is Illuminated
Oct 19
Waxing Crescent
Oct 21
First Quarter
Oct 29
Full
Nov 6
Last Quarter
Nov 13
New

Hourly Weather History & Observations

Time (PDT) Temp. Dew Point Humidity Pressure Visibility Wind Dir Wind Speed Gust Speed Precip Events Conditions
12:09 AM 48.2 °F 46.4 °F 93% 30.03 in 2.5 mi Calm Calm - N/A   Partly Cloudy
12:19 AM 48.2 °F 46.4 °F 93% 30.03 in 1.8 mi Calm Calm - N/A   Partly Cloudy
12:27 AM 50.0 °F 48.2 °F 94% 30.03 in 2.5 mi Calm Calm - N/A   Partly Cloudy
12:39 AM 51.8 °F 48.2 °F 88% 30.03 in 3.0 mi Calm Calm - N/A   Clear
12:53 AM 50.0 °F 48.2 °F 94% 30.04 in 2.5 mi West 3.5 mph - N/A   Partly Cloudy
12:56 AM 50.0 °F 48.0 °F 93% 30.04 in 1.2 mi Calm Calm - N/A   Scattered Clouds
12:58 AM 48.2 °F 46.4 °F 93% 30.04 in 0.8 mi WNW 3.5 mph - N/A   Mist
1:28 AM 50.0 °F 48.2 °F 94% 30.05 in 0.2 mi Calm Calm - N/A Fog Fog
1:41 AM 51.8 °F 48.2 °F 88% 30.05 in 1.5 mi Calm Calm - N/A   Overcast
1:56 AM 48.9 °F 48.0 °F 97% 30.06 in 3.0 mi Calm Calm - N/A   Scattered Clouds
2:56 AM 50.0 °F 48.9 °F 96% 30.05 in 4.0 mi East 4.6 mph - N/A   Clear
3:56 AM 52.0 °F 51.1 °F 97% 30.03 in 6.0 mi ESE 6.9 mph - N/A   Clear
4:56 AM 51.1 °F 50.0 °F 96% 30.02 in 6.0 mi SE 4.6 mph - N/A   Clear
5:56 AM 50.0 °F 50.0 °F 100% 30.04 in 4.0 mi Calm Calm - N/A   Scattered Clouds
6:01 AM 50.0 °F 50.0 °F 100% 30.03 in 4.0 mi Calm Calm - N/A   Mostly Cloudy
6:17 AM 50.0 °F 48.2 °F 94% 30.03 in 2.5 mi SE 3.5 mph - N/A   Mostly Cloudy
6:24 AM 51.8 °F 50.0 °F 94% 30.03 in 3.0 mi ESE 4.6 mph - N/A   Scattered Clouds
6:54 AM 50.0 °F 48.2 °F 94% 30.04 in 1.8 mi Calm Calm - N/A   Partly Cloudy
6:56 AM 50.0 °F 48.9 °F 96% 30.04 in 1.5 mi Calm Calm - N/A   Partly Cloudy
7:11 AM 51.8 °F 50.0 °F 94% 30.04 in 2.5 mi Calm Calm - N/A   Clear
7:18 AM 51.8 °F 50.0 °F 94% 30.04 in 3.0 mi Calm Calm - N/A   Clear
7:56 AM 50.0 °F 48.9 °F 96% 30.05 in 2.0 mi Calm Calm - N/A   Partly Cloudy
8:02 AM 50.0 °F 48.2 °F 94% 30.05 in 1.2 mi Calm Calm - N/A   Scattered Clouds
8:10 AM 50.0 °F 50.0 °F 100% 30.05 in 1.2 mi Calm Calm - N/A   Mostly Cloudy
8:22 AM 51.8 °F 50.0 °F 94% 30.04 in 2.0 mi East 3.5 mph - N/A   Overcast
8:29 AM 51.8 °F 51.8 °F 100% 30.04 in 5.0 mi ESE 4.6 mph - N/A   Overcast
8:56 AM 54.0 °F 53.1 °F 97% 30.05 in 7.0 mi SE 4.6 mph - N/A   Partly Cloudy
9:56 AM 55.0 °F 52.0 °F 89% 30.06 in 9.0 mi South 9.2 mph - N/A   Clear
10:40 AM 55.4 °F 53.6 °F 94% 30.07 in 6.0 mi South 10.4 mph - N/A   Overcast
10:56 AM 55.0 °F 52.0 °F 89% 30.07 in 7.0 mi South 10.4 mph - N/A   Overcast
12:56 PM 55.9 °F 52.0 °F 87% 30.07 in 10.0 mi South 9.2 mph - N/A   Overcast
2:56 PM 57.0 °F 53.1 °F 87% 30.03 in 9.0 mi SSE 11.5 mph - N/A   Overcast
3:04 PM 55.4 °F 53.6 °F 94% 30.03 in 8.0 mi SSE 11.5 mph - N/A   Overcast
3:34 PM 55.4 °F 53.6 °F 94% 30.03 in 10.0 mi SSE 13.8 mph - N/A   Overcast
3:56 PM 55.0 °F 53.1 °F 93% 30.02 in 9.0 mi SSE 11.5 mph - N/A   Overcast
4:56 PM 55.0 °F 53.1 °F 93% 30.01 in 10.0 mi South 13.8 mph - 0.00 in   Overcast
5:25 PM 55.4 °F 53.6 °F 94% 30.00 in 10.0 mi South 10.4 mph - N/A   Overcast
5:47 PM 55.4 °F 53.6 °F 94% 30.00 in 1.8 mi SSE 9.2 mph - 0.02 in Rain Rain
5:56 PM 55.0 °F 53.1 °F 93% 30.00 in 2.0 mi SSE 9.2 mph - 0.03 in Rain Light Rain
6:22 PM 55.4 °F 53.6 °F 94% 30.00 in 1.5 mi SSE 8.1 mph - 0.05 in Rain Rain
6:29 PM 55.4 °F 53.6 °F 94% 30.00 in 1.5 mi SSE 9.2 mph - 0.07 in Rain Rain
6:40 PM 55.4 °F 53.6 °F 94% 30.00 in 2.5 mi SSE 9.2 mph - 0.10 in Rain Rain
7:10 PM 55.4 °F 53.6 °F 94% 30.00 in 4.0 mi South 8.1 mph - 0.01 in Rain Light Rain
7:17 PM 55.4 °F 53.6 °F 94% 30.00 in 3.0 mi SSE 6.9 mph - 0.01 in Rain Light Rain
7:56 PM 55.0 °F 54.0 °F 96% 29.99 in 7.0 mi SSE 8.1 mph - 0.01 in   Overcast
8:56 PM 54.0 °F 54.0 °F 100% 30.01 in 4.0 mi South 5.8 mph - N/A   Overcast
9:08 PM 53.6 °F 53.6 °F 100% 30.01 in 2.0 mi SSE 4.6 mph - 0.00 in Rain Light Rain
9:53 PM 55.4 °F 53.6 °F 94% 30.02 in 3.0 mi SE 4.6 mph - 0.01 in Rain Light Rain
9:56 PM 54.0 °F 54.0 °F 100% 30.03 in 2.5 mi ESE 3.5 mph - 0.01 in Rain Light Rain
10:05 PM 55.4 °F 53.6 °F 94% 30.02 in 3.0 mi SE 3.5 mph - 0.00 in   Overcast
10:56 PM 55.0 °F 54.0 °F 96% 30.01 in 4.0 mi ESE 4.6 mph - 0.00 in   Overcast
11:56 PM 55.0 °F 54.0 °F 96% 30.01 in 4.0 mi SE 5.8 mph - N/A   Overcast